Flag for Austria Weather past 2 weeks in Enns, Upper Austria, Austria

Now
54 °F

Passing clouds.


Feels Like: 54 °F
Forecast: 35 / 58 °F
Wind: 3 mph from East

Location: Linz / Hoersching-Flughafen

Current Time: Apr 19, 2015 at 4:55:22 PM

Latest Report: Apr 19, 2015 at 4:00 PM


Visibility: 22 mi

Pressure: 30.12 "Hg

Humidity: 39%

Dew point: 30 °F

Location of EnnsLocation

Historic Weather in Enns — Graph

°F

Enns temperature yesterday

Maximum temperature yesterday: 51 °F (at 6:00 PM)
Minimum temperature yesterday: 43 °F (at 8:00 AM)
Average temperature yesterday: 46 °F

Past Weeks' High & Low Weather Summary

 TemperatureHumidityPressure
High73 °F (Apr 16, 3:00 PM)95% (Apr 10, 7:00 AM)30.63 "Hg (Apr 10, 7:00 AM)
Low32 °F (Apr 7, 6:00 AM)27% (Apr 10, 6:00 PM)29.83 "Hg (Apr 17, 5:00 PM)
Average50 °F63%30.24 "Hg
* Reported Apr 4 3:00 PM — Apr 19 3:00 PM, Enns, Weather by CustomWeather, © 2015

Note: Actual official high and low records may vary slightly from our data, if they occured in-between our weather recording intervals... More about our weather records

Advertising

Enns weather history for previous 24 hours

 ConditionsComfort  
Time TempWeatherWind HumidityBarometerVisibility
3:00 PM
Sun, Apr 19
54 °FPassing clouds.N/A42%30.13 "Hg14 mi
2:00 PM51 °FPassing clouds.3 mph41%30.16 "Hg17 mi
1:00 PM51 °FPassing clouds.5 mph45%30.19 "Hg16 mi
12:00 PM49 °FPassing clouds.3 mph42%30.20 "Hg18 mi
11:00 AM48 °FPassing clouds.N/A48%30.22 "Hg15 mi
10:00 AM46 °FPassing clouds.N/A57%30.23 "Hg25 mi
9:00 AM42 °FPassing clouds.N/A69%30.24 "Hg22 mi
8:00 AM38 °FPassing clouds.N/A75%30.24 "Hg25 mi
7:00 AM34 °FPassing clouds.N/A84%30.25 "Hg19 mi
6:00 AM34 °FPassing clouds.N/A87%30.26 "Hg25 mi
5:00 AM35 °FPassing clouds.N/A84%30.27 "Hg28 mi
4:00 AM37 °FPassing clouds.7 mph75%30.27 "Hg2 mi
3:00 AM39 °FOvercast.N/A72%30.27 "Hg28 mi
2:00 AM39 °FOvercast.N/A75%30.28 "Hg28 mi
1:00 AM40 °FPassing clouds.N/A62%30.28 "Hg28 mi
12:00 AMN/APassing clouds.9 mphN/AN/A2 mi
11:00 PM
Sat, Apr 18
44 °FPassing clouds.N/A60%30.27 "Hg31 mi
10:00 PM45 °FPassing clouds.N/A47%30.27 "Hg28 mi
9:00 PM46 °FOvercast.5 mph51%30.24 "Hg31 mi
8:00 PM46 °FOvercast.N/A62%30.22 "Hg31 mi
7:00 PM49 °FPartly sunny.N/A53%30.20 "Hg28 mi
6:00 PM51 °FPassing clouds.N/A47%30.19 "Hg22 mi
5:00 PM51 °FScattered clouds.6 mph39%30.19 "Hg19 mi
4:00 PM51 °FOvercast.5 mph43%30.19 "Hg18 mi
Weather by CustomWeather, © 2015

See weather overviewHow to use our weather pages